| time (UTC) | temp C | wind direction | speed KPH | gust KPH | rain 1hr cm | rain 24hr cm | rain mn cm | humidity % | barometer mb |
| 20260905170100 | 13 | 136 | 1.6 | 8.0 | 0.00 | 0.03 | 0.00 | 74 | 1017.0 |
| 20260905164606 | 13 | 5 | 1.6 | 4.8 | 0.00 | 0.03 | 0.00 | 76 | 1017.0 |
| 20260905163106 | 12 | 48 | 0.0 | 4.8 | 0.00 | 0.03 | 0.00 | 80 | 1017.2 |
| 20260905161601 | 12 | 0 | 0.0 | 4.8 | 0.00 | 0.03 | 0.00 | 83 | 1017.3 |
| 20260905160123 | 11 | 148 | 1.6 | 6.4 | 0.00 | 0.03 | 0.00 | 86 | 1017.3 |
| 20260905154604 | 11 | 112 | 0.0 | 4.8 | 0.00 | 0.03 | 0.00 | 87 | 1017.4 |
| 20260905153112 | 10 | 44 | 0.0 | 3.2 | 0.00 | 0.03 | 0.00 | 88 | 1017.3 |
| 20260905151559 | 10 | 0 | 0.0 | 1.6 | 0.00 | 0.03 | 0.00 | 88 | 1017.4 |
| 20260905144606 | 9 | 0 | 0.0 | 1.6 | 0.00 | 0.03 | 0.00 | 92 | 1017.5 |
| 20260905143059 | 8 | 0 | 0.0 | 0.0 | 0.00 | 0.03 | 0.00 | 93 | 1017.4 |
| 20260905141604 | 8 | 0 | 0.0 | 0.0 | 0.00 | 0.03 | 0.00 | 94 | 1017.2 |
| 20260905140109 | 8 | 355 | 1.6 | 3.2 | 0.00 | 0.03 | 0.00 | 94 | 1017.3 |
| 20260905134558 | 8 | 0 | 0.0 | 0.0 | 0.00 | 0.05 | 0.00 | 93 | 1017.0 |
| 20260905133108 | 8 | 0 | 0.0 | 0.0 | 0.00 | 0.05 | 0.00 | 93 | 1017.1 |
| 20260905131611 | 8 | 0 | 0.0 | 0.0 | 0.00 | 0.05 | 0.00 | 92 | 1016.9 |
| 20260905130115 | 8 | 0 | 0.0 | 0.0 | 0.00 | 0.05 | 0.00 | 93 | 1016.8 |
| 20260905124600 | 8 | 0 | 0.0 | 0.0 | 0.00 | 0.05 | 0.00 | 93 | 1016.8 |
| 20260905123107 | 8 | 0 | 0.0 | 0.0 | 0.00 | 0.05 | 0.00 | 92 | 1016.8 |
| 20260905121601 | 9 | 0 | 0.0 | 0.0 | 0.00 | 0.05 | 0.00 | 92 | 1017.0 |
| 20260905120112 | 9 | 0 | 0.0 | 0.0 | 0.00 | 0.05 | 0.00 | 92 | 1017.0 |
| 20260905114555 | 9 | 0 | 0.0 | 0.0 | 0.00 | 0.05 | 0.00 | 92 | 1017.1 |
| 20260905113058 | 9 | 0 | 0.0 | 3.2 | 0.00 | 0.05 | 0.00 | 92 | 1017.0 |
| 20260905111611 | 9 | 0 | 0.0 | 3.2 | 0.00 | 0.05 | 0.00 | 92 | 1017.0 |
| 20260905110101 | 9 | 0 | 0.0 | 0.0 | 0.00 | 0.05 | 0.00 | 93 | 1017.0 |
| 20260905104600 | 9 | 0 | 0.0 | 3.2 | 0.00 | 0.05 | 0.00 | 92 | 1017.0 |
| 20260905103102 | 9 | 0 | 0.0 | 0.0 | 0.00 | 0.05 | 0.00 | 92 | 1017.2 |
| 20260905101602 | 9 | 0 | 0.0 | 0.0 | 0.00 | 0.05 | 0.00 | 91 | 1017.0 |
| 20260905094603 | 10 | 0 | 0.0 | 0.0 | 0.00 | 0.05 | 0.00 | 90 | 1016.8 |
| 20260905093058 | 10 | 0 | 0.0 | 3.2 | 0.00 | 0.05 | 0.00 | 90 | 1016.8 |
| 20260905091609 | 10 | 0 | 0.0 | 1.6 | 0.00 | 0.05 | 0.00 | 91 | 1017.0 |
| 20260905090100 | 10 | 0 | 0.0 | 3.2 | 0.00 | 0.05 | 0.00 | 89 | 1016.9 |
| 20260905084617 | 10 | 0 | 0.0 | 1.6 | 0.00 | 0.05 | 0.00 | 89 | 1016.9 |
| 20260905083055 | 10 | 0 | 1.6 | 4.8 | 0.00 | 0.05 | 0.00 | 88 | 1016.8 |
| 20260905081604 | 11 | 0 | 0.0 | 1.6 | 0.00 | 0.05 | 0.00 | 87 | 1016.7 |
| 20260905080105 | 11 | 0 | 0.0 | 4.8 | 0.00 | 0.05 | 0.00 | 85 | 1016.7 |
| 20260905074605 | 11 | 0 | 0.0 | 0.0 | 0.00 | 0.05 | 0.00 | 84 | 1016.7 |
| 20260905073106 | 11 | 0 | 0.0 | 0.0 | 0.00 | 0.05 | 0.00 | 84 | 1016.7 |
| 20260905071554 | 11 | 0 | 0.0 | 0.0 | 0.00 | 0.05 | 0.00 | 83 | 1016.6 |
| 20260905070103 | 12 | 166 | 1.6 | 6.4 | 0.00 | 0.05 | 0.00 | 83 | 1016.5 |
| 20260905064601 | 12 | 139 | 1.6 | 4.8 | 0.00 | 0.05 | 0.05 | 82 | 1016.3 |
| 20260905063100 | 12 | 0 | 0.0 | 1.6 | 0.00 | 0.05 | 0.05 | 83 | 1016.5 |
| 20260905061601 | 12 | 103 | 0.0 | 4.8 | 0.00 | 0.05 | 0.05 | 82 | 1016.5 |
| 20260905060101 | 12 | 0 | 0.0 | 4.8 | 0.00 | 0.05 | 0.05 | 83 | 1016.2 |
| 20260905054600 | 12 | 0 | 1.6 | 3.2 | 0.00 | 0.05 | 0.05 | 82 | 1016.3 |
| 20260905053141 | 12 | 0 | 0.0 | 4.8 | 0.00 | 0.05 | 0.05 | 82 | 1016.4 |
| 20260905051559 | 12 | 0 | 0.0 | 0.0 | 0.00 | 0.05 | 0.05 | 80 | 1016.3 |
| 20260905044605 | 13 | 0 | 0.0 | 3.2 | 0.00 | 0.05 | 0.05 | 77 | 1016.3 |
| 20260905043106 | 13 | 0 | 0.0 | 4.8 | 0.00 | 0.05 | 0.05 | 76 | 1016.1 |
| 20260905041608 | 13 | 179 | 1.6 | 9.7 | 0.00 | 0.05 | 0.05 | 74 | 1016.0 |
| 20260905040104 | 14 | 159 | 1.6 | 4.8 | 0.00 | 0.05 | 0.05 | 71 | 1015.9 |
| 20260905034556 | 15 | 0 | 0.0 | 0.0 | 0.00 | 0.05 | 0.05 | 68 | 1015.8 |
| 20260905033103 | 15 | 0 | 0.0 | 4.8 | 0.00 | 0.05 | 0.05 | 64 | 1015.5 |
| 20260905031557 | 15 | 0 | 1.6 | 4.8 | 0.00 | 0.05 | 0.05 | 65 | 1015.4 |
| 20260905024621 | 16 | 339 | 1.6 | 4.8 | 0.00 | 0.05 | 0.05 | 63 | 1015.1 |
| 20260905023110 | 16 | 5 | 3.2 | 11.3 | 0.00 | 0.05 | 0.05 | 62 | 1015.0 |
| 20260905021600 | 16 | 5 | 8.0 | 14.5 | 0.00 | 0.05 | 0.05 | 60 | 1014.9 |
| 20260905020110 | 16 | 360 | 9.7 | 17.7 | 0.00 | 0.05 | 0.05 | 59 | 1014.9 |
| 20260905014615 | 16 | 46 | 3.2 | 9.7 | 0.00 | 0.05 | 0.05 | 60 | 1014.7 |
| 20260905013104 | 16 | 57 | 3.2 | 14.5 | 0.00 | 0.05 | 0.05 | 59 | 1014.6 |
| 20260905011619 | 16 | 49 | 6.4 | 17.7 | 0.00 | 0.05 | 0.05 | 61 | 1014.7 |
| 20260905010101 | 16 | 61 | 12.9 | 19.3 | 0.00 | 0.05 | 0.05 | 60 | 1014.5 |
| 20260905004600 | 16 | 11 | 8.0 | 20.9 | 0.03 | 0.05 | 0.05 | 62 | 1014.4 |
| 20260905003103 | 16 | 14 | 11.3 | 19.3 | 0.03 | 0.05 | 0.05 | 62 | 1014.3 |
| 20260905001602 | 16 | 12 | 12.9 | 25.7 | 0.03 | 0.05 | 0.05 | 63 | 1014.3 |
| 20260905000105 | 16 | 12 | 11.3 | 24.1 | 0.03 | 0.05 | 0.05 | 66 | 1014.1 |
| 20260904234601 | 17 | 342 | 6.4 | 14.5 | 0.00 | 0.03 | 0.03 | 64 | 1014.0 |
| 20260904233057 | 17 | 11 | 8.0 | 20.9 | 0.00 | 0.03 | 0.03 | 56 | 1013.9 |
| 20260904231600 | 18 | 56 | 6.4 | 16.1 | 0.00 | 0.03 | 0.03 | 50 | 1013.6 |
| 20260904230108 | 19 | 15 | 8.0 | 16.1 | 0.00 | 0.03 | 0.03 | 48 | 1013.4 |
| 20260904224608 | 18 | 16 | 3.2 | 12.9 | 0.00 | 0.03 | 0.03 | 49 | 1013.5 |
| 20260904223102 | 18 | 355 | 6.4 | 14.5 | 0.00 | 0.03 | 0.03 | 51 | 1013.5 |
| 20260904221601 | 18 | 5 | 6.4 | 12.9 | 0.00 | 0.03 | 0.03 | 52 | 1013.7 |
| 20260904220110 | 18 | 13 | 4.8 | 11.3 | 0.00 | 0.03 | 0.03 | 52 | 1013.9 |
| 20260904214605 | 18 | 78 | 3.2 | 14.5 | 0.00 | 0.03 | 0.03 | 52 | 1013.8 |
| 20260904213106 | 17 | 69 | 3.2 | 12.9 | 0.00 | 0.03 | 0.03 | 52 | 1013.7 |
| 20260904211604 | 17 | 57 | 4.8 | 14.5 | 0.00 | 0.03 | 0.03 | 55 | 1013.7 |
| 20260904210105 | 17 | 57 | 4.8 | 12.9 | 0.00 | 0.03 | 0.03 | 54 | 1013.8 |
| 20260904204602 | 18 | 30 | 1.6 | 8.0 | 0.00 | 0.03 | 0.03 | 51 | 1013.7 |
| 20260904203104 | 18 | 43 | 3.2 | 11.3 | 0.00 | 0.03 | 0.03 | 50 | 1013.9 |
| 20260904201636 | 17 | 123 | 6.4 | 11.3 | 0.00 | 0.03 | 0.03 | 56 | 1013.7 |
| 20260904200114 | 17 | 313 | 0.0 | 6.4 | 0.00 | 0.03 | 0.03 | 57 | 1013.9 |
| 20260904194607 | 17 | 0 | 1.6 | 8.0 | 0.00 | 0.03 | 0.03 | 58 | 1014.0 |
| 20260904193106 | 16 | 0 | 0.0 | 6.4 | 0.00 | 0.03 | 0.03 | 63 | 1014.0 |
| 20260904191601 | 16 | 0 | 1.6 | 8.0 | 0.00 | 0.03 | 0.03 | 66 | 1014.0 |
| 20260904190057 | 15 | 24 | 1.6 | 6.4 | 0.00 | 0.03 | 0.03 | 67 | 1014.1 |
| 20260904184557 | 15 | 90 | 1.6 | 8.0 | 0.00 | 0.03 | 0.03 | 69 | 1014.2 |
| 20260904183100 | 14 | 82 | 1.6 | 12.9 | 0.00 | 0.03 | 0.03 | 71 | 1014.2 |
| 20260904181559 | 14 | 53 | 3.2 | 12.9 | 0.00 | 0.03 | 0.03 | 69 | 1013.9 |
| 20260904180058 | 13 | 64 | 6.4 | 11.3 | 0.00 | 0.03 | 0.03 | 72 | 1014.1 |
| 20260904174557 | 13 | 73 | 3.2 | 9.7 | 0.00 | 0.03 | 0.03 | 75 | 1014.0 |
| 20260904173127 | 12 | 49 | 3.2 | 6.4 | 0.00 | 0.03 | 0.03 | 82 | 1014.0 |